| time (UTC) | temp C | wind direction | speed KPH | gust KPH | rain 1hr cm | rain 24hr cm | rain mn cm | humidity % | barometer mb |
| 20260510233314 | 32 | 229 | 9.7 | 20.9 | 0.00 | 0.00 | 0.00 | 28 | 1012.5 |
| 20260510232825 | 33 | 184 | 9.7 | 16.1 | 0.00 | 0.00 | 0.00 | 27 | 1012.5 |
| 20260510232319 | 33 | 236 | 8.0 | 16.1 | 0.00 | 0.00 | 0.00 | 26 | 1012.4 |
| 20260510231811 | 33 | 188 | 9.7 | 16.1 | 0.00 | 0.00 | 0.00 | 25 | 1012.5 |
| 20260510231322 | 33 | 158 | 4.8 | 14.5 | 0.00 | 0.00 | 0.00 | 24 | 1012.3 |
| 20260510230812 | 33 | 218 | 8.0 | 14.5 | 0.00 | 0.00 | 0.00 | 24 | 1012.4 |
| 20260510230325 | 34 | 207 | 6.4 | 12.9 | 0.00 | 0.00 | 0.00 | 24 | 1012.3 |
| 20260510225815 | 34 | 226 | 3.2 | 12.9 | 0.00 | 0.00 | 0.00 | 25 | 1012.4 |
| 20260510225325 | 33 | 180 | 6.4 | 16.1 | 0.00 | 0.00 | 0.00 | 25 | 1012.3 |
| 20260510224837 | 33 | 175 | 3.2 | 16.1 | 0.00 | 0.00 | 0.00 | 24 | 1012.3 |
| 20260510224328 | 33 | 205 | 3.2 | 14.5 | 0.00 | 0.00 | 0.00 | 25 | 1012.3 |
| 20260510223822 | 33 | 226 | 6.4 | 12.9 | 0.00 | 0.00 | 0.00 | 24 | 1012.3 |
| 20260510223314 | 33 | 279 | 3.2 | 22.5 | 0.00 | 0.00 | 0.00 | 25 | 1012.3 |
| 20260510222826 | 33 | 217 | 4.8 | 22.5 | 0.00 | 0.00 | 0.00 | 26 | 1012.3 |
| 20260510222337 | 34 | 195 | 11.3 | 19.3 | 0.00 | 0.00 | 0.00 | 24 | 1012.2 |
| 20260510221825 | 34 | 243 | 3.2 | 11.3 | 0.00 | 0.00 | 0.00 | 25 | 1012.3 |
| 20260510221336 | 33 | 257 | 4.8 | 12.9 | 0.00 | 0.00 | 0.00 | 22 | 1012.4 |
| 20260510220826 | 34 | 214 | 4.8 | 17.7 | 0.00 | 0.00 | 0.00 | 22 | 1012.4 |
| 20260510220317 | 33 | 213 | 6.4 | 17.7 | 0.00 | 0.00 | 0.00 | 23 | 1012.5 |
| 20260510215828 | 33 | 237 | 6.4 | 16.1 | 0.00 | 0.00 | 0.00 | 23 | 1012.5 |
| 20260510215319 | 33 | 274 | 4.8 | 16.1 | 0.00 | 0.00 | 0.00 | 25 | 1012.5 |
| 20260510214810 | 33 | 236 | 3.2 | 12.9 | 0.00 | 0.00 | 0.00 | 23 | 1012.5 |
| 20260510214343 | 33 | 224 | 4.8 | 19.3 | 0.00 | 0.00 | 0.00 | 23 | 1012.6 |
| 20260510213817 | 33 | 231 | 4.8 | 17.7 | 0.00 | 0.00 | 0.00 | 22 | 1012.6 |
| 20260510213328 | 33 | 200 | 8.0 | 16.1 | 0.00 | 0.00 | 0.00 | 22 | 1012.7 |
| 20260510212819 | 33 | 234 | 6.4 | 12.9 | 0.00 | 0.00 | 0.00 | 23 | 1012.7 |
| 20260510212310 | 33 | 285 | 4.8 | 17.7 | 0.00 | 0.00 | 0.00 | 24 | 1012.8 |
| 20260510211822 | 33 | 276 | 6.4 | 17.7 | 0.00 | 0.00 | 0.00 | 24 | 1012.8 |
| 20260510211314 | 33 | 224 | 8.0 | 16.1 | 0.00 | 0.00 | 0.00 | 24 | 1012.9 |
| 20260510210825 | 33 | 205 | 6.4 | 17.7 | 0.00 | 0.00 | 0.00 | 24 | 1013.0 |
| 20260510210336 | 33 | 228 | 8.0 | 17.7 | 0.00 | 0.00 | 0.00 | 24 | 1013.0 |
| 20260510205826 | 33 | 205 | 6.4 | 16.1 | 0.00 | 0.00 | 0.00 | 25 | 1012.9 |
| 20260510205323 | 33 | 230 | 6.4 | 14.5 | 0.00 | 0.00 | 0.00 | 26 | 1013.0 |
| 20260510204833 | 33 | 199 | 4.8 | 17.7 | 0.00 | 0.00 | 0.00 | 26 | 1013.1 |
| 20260510204344 | 33 | 197 | 3.2 | 14.5 | 0.00 | 0.00 | 0.00 | 26 | 1013.0 |
| 20260510203835 | 33 | 211 | 9.7 | 14.5 | 0.00 | 0.00 | 0.00 | 25 | 1013.1 |
| 20260510203326 | 33 | 229 | 8.0 | 12.9 | 0.00 | 0.00 | 0.00 | 25 | 1013.1 |
| 20260510202816 | 32 | 200 | 6.4 | 12.9 | 0.00 | 0.00 | 0.00 | 25 | 1013.1 |
| 20260510202327 | 32 | 223 | 4.8 | 12.9 | 0.00 | 0.00 | 0.00 | 25 | 1013.2 |
| 20260510201818 | 32 | 219 | 4.8 | 16.1 | 0.00 | 0.00 | 0.00 | 25 | 1013.2 |
| 20260510201328 | 32 | 141 | 1.6 | 16.1 | 0.00 | 0.00 | 0.00 | 24 | 1013.3 |
| 20260510200819 | 33 | 143 | 4.8 | 8.0 | 0.00 | 0.00 | 0.00 | 25 | 1013.3 |
| 20260510200315 | 32 | 51 | 3.2 | 14.5 | 0.00 | 0.00 | 0.00 | 25 | 1013.3 |
| 20260510195827 | 32 | 280 | 4.8 | 14.5 | 0.00 | 0.00 | 0.00 | 25 | 1013.3 |
| 20260510195318 | 32 | 208 | 4.8 | 11.3 | 0.00 | 0.00 | 0.00 | 26 | 1013.4 |
| 20260510194830 | 32 | 268 | 3.2 | 9.7 | 0.00 | 0.00 | 0.00 | 25 | 1013.3 |
| 20260510194339 | 32 | 276 | 4.8 | 8.0 | 0.00 | 0.00 | 0.00 | 27 | 1013.4 |
| 20260510193831 | 31 | 229 | 3.2 | 9.7 | 0.00 | 0.00 | 0.00 | 25 | 1013.3 |
| 20260510193321 | 31 | 204 | 4.8 | 14.5 | 0.00 | 0.00 | 0.00 | 27 | 1013.3 |
| 20260510192811 | 31 | 250 | 4.8 | 14.5 | 0.00 | 0.00 | 0.00 | 25 | 1013.4 |
| 20260510192323 | 31 | 330 | 3.2 | 12.9 | 0.00 | 0.00 | 0.00 | 25 | 1013.4 |
| 20260510191813 | 31 | 204 | 6.4 | 12.9 | 0.00 | 0.00 | 0.00 | 25 | 1013.4 |
| 20260510191324 | 31 | 205 | 3.2 | 9.7 | 0.00 | 0.00 | 0.00 | 25 | 1013.4 |
| 20260510190840 | 31 | 219 | 3.2 | 9.7 | 0.00 | 0.00 | 0.00 | 25 | 1013.5 |
| 20260510190351 | 31 | 215 | 3.2 | 8.0 | 0.00 | 0.00 | 0.00 | 26 | 1013.5 |
| 20260510185822 | 31 | 205 | 3.2 | 14.5 | 0.00 | 0.00 | 0.00 | 27 | 1013.4 |
| 20260510185312 | 30 | 165 | 4.8 | 14.5 | 0.00 | 0.00 | 0.00 | 27 | 1013.4 |
| 20260510184822 | 30 | 233 | 4.8 | 11.3 | 0.00 | 0.00 | 0.00 | 28 | 1013.5 |
| 20260510184313 | 30 | 300 | 4.8 | 11.3 | 0.00 | 0.00 | 0.00 | 28 | 1013.5 |
| 20260510183825 | 30 | 151 | 1.6 | 9.7 | 0.00 | 0.00 | 0.00 | 29 | 1013.5 |
| 20260510183316 | 30 | 235 | 3.2 | 11.3 | 0.00 | 0.00 | 0.00 | 30 | 1013.5 |
| 20260510182828 | 29 | 197 | 3.2 | 11.3 | 0.00 | 0.00 | 0.00 | 30 | 1013.7 |
| 20260510182320 | 29 | 224 | 6.4 | 11.3 | 0.00 | 0.00 | 0.00 | 29 | 1013.7 |
| 20260510181814 | 29 | 219 | 4.8 | 11.3 | 0.00 | 0.00 | 0.00 | 29 | 1013.7 |
| 20260510181325 | 29 | 284 | 4.8 | 11.3 | 0.00 | 0.00 | 0.00 | 29 | 1013.6 |
| 20260510180836 | 29 | 257 | 1.6 | 8.0 | 0.00 | 0.00 | 0.00 | 30 | 1013.5 |
| 20260510180326 | 28 | 243 | 3.2 | 8.0 | 0.00 | 0.00 | 0.00 | 28 | 1013.6 |
| 20260510175839 | 28 | 278 | 1.6 | 14.5 | 0.00 | 0.00 | 0.00 | 29 | 1013.5 |
| 20260510175328 | 28 | 338 | 6.4 | 14.5 | 0.00 | 0.00 | 0.00 | 28 | 1013.4 |
| 20260510174819 | 28 | 217 | 3.2 | 6.4 | 0.00 | 0.00 | 0.00 | 30 | 1013.4 |
| 20260510174330 | 27 | 320 | 1.6 | 9.7 | 0.00 | 0.00 | 0.00 | 30 | 1013.4 |
| 20260510173820 | 27 | 307 | 6.4 | 9.7 | 0.00 | 0.00 | 0.00 | 30 | 1013.4 |
| 20260510173351 | 27 | 313 | 1.6 | 9.7 | 0.00 | 0.00 | 0.00 | 32 | 1013.5 |
| 20260510172825 | 27 | 288 | 3.2 | 8.0 | 0.00 | 0.00 | 0.00 | 31 | 1013.3 |
| 20260510172314 | 26 | 303 | 3.2 | 6.4 | 0.00 | 0.00 | 0.00 | 32 | 1013.4 |
| 20260510171827 | 26 | 244 | 1.6 | 6.4 | 0.00 | 0.00 | 0.00 | 34 | 1013.4 |
| 20260510171315 | 26 | 317 | 3.2 | 6.4 | 0.00 | 0.00 | 0.00 | 34 | 1013.5 |
| 20260510170826 | 26 | 255 | 0.0 | 4.8 | 0.00 | 0.00 | 0.00 | 35 | 1013.5 |
| 20260510170318 | 25 | 314 | 1.6 | 4.8 | 0.00 | 0.00 | 0.00 | 35 | 1013.4 |
| 20260510165828 | 25 | 274 | 0.0 | 4.8 | 0.00 | 0.00 | 0.00 | 36 | 1013.5 |
| 20260510165339 | 25 | 103 | 0.0 | 4.8 | 0.00 | 0.00 | 0.00 | 36 | 1013.5 |
| 20260510164850 | 25 | 269 | 1.6 | 4.8 | 0.00 | 0.00 | 0.00 | 37 | 1013.5 |
| 20260510164319 | 24 | 271 | 0.0 | 4.8 | 0.00 | 0.00 | 0.00 | 39 | 1013.5 |
| 20260510163851 | 23 | 338 | 0.0 | 3.2 | 0.00 | 0.00 | 0.00 | 40 | 1013.6 |
| 20260510163321 | 23 | 271 | 0.0 | 6.4 | 0.00 | 0.00 | 0.00 | 40 | 1013.5 |
| 20260510162815 | 23 | 263 | 1.6 | 6.4 | 0.00 | 0.00 | 0.00 | 41 | 1013.5 |
| 20260510162325 | 22 | 75 | 0.0 | 3.2 | 0.00 | 0.00 | 0.00 | 41 | 1013.7 |
| 20260510161817 | 22 | 306 | 1.6 | 4.8 | 0.00 | 0.00 | 0.00 | 40 | 1013.5 |
| 20260510161329 | 22 | 323 | 1.6 | 4.8 | 0.00 | 0.00 | 0.00 | 40 | 1013.5 |
| 20260510160820 | 22 | 263 | 0.0 | 0.0 | 0.00 | 0.00 | 0.00 | 40 | 1013.6 |
| 20260510160350 | 22 | 49 | 0.0 | 0.0 | 0.00 | 0.00 | 0.00 | 41 | 1013.5 |
| 20260510155819 | 22 | 45 | 0.0 | 0.0 | 0.00 | 0.00 | 0.00 | 43 | 1013.5 |
| 20260510155350 | 21 | 39 | 0.0 | 0.0 | 0.00 | 0.00 | 0.00 | 43 | 1013.5 |
| 20260510154821 | 21 | 328 | 0.0 | 0.0 | 0.00 | 0.00 | 0.00 | 45 | 1013.5 |
| 20260510154315 | 20 | 302 | 0.0 | 0.0 | 0.00 | 0.00 | 0.00 | 45 | 1013.5 |
| 20260510153826 | 20 | 352 | 0.0 | 0.0 | 0.00 | 0.00 | 0.00 | 47 | 1013.6 |
| 20260510153317 | 20 | 283 | 0.0 | 1.6 | 0.00 | 0.00 | 0.00 | 49 | 1013.6 |
| 20260510152828 | 20 | 283 | 0.0 | 3.2 | 0.00 | 0.00 | 0.00 | 49 | 1013.6 |
| 20260510152319 | 19 | 51 | 0.0 | 3.2 | 0.00 | 0.00 | 0.00 | 51 | 1013.7 |
| 20260510151851 | 18 | 39 | 1.6 | 4.8 | 0.00 | 0.00 | 0.00 | 52 | 1013.5 |
| 20260510151342 | 18 | 316 | 1.6 | 4.8 | 0.00 | 0.00 | 0.00 | 53 | 1013.6 |
| 20260510150831 | 18 | 309 | 3.2 | 4.8 | 0.00 | 0.00 | 0.00 | 52 | 1013.5 |
| 20260510150342 | 18 | 314 | 1.6 | 4.8 | 0.00 | 0.00 | 0.00 | 51 | 1013.7 |
| 20260510145812 | 18 | 262 | 0.0 | 0.0 | 0.00 | 0.00 | 0.00 | 51 | 1013.4 |
| 20260510145324 | 19 | 184 | 0.0 | 0.0 | 0.00 | 0.00 | 0.00 | 52 | 1013.5 |
| 20260510144819 | 19 | 184 | 0.0 | 0.0 | 0.00 | 0.00 | 0.00 | 50 | 1013.4 |
| 20260510144330 | 19 | 184 | 0.0 | 0.0 | 0.00 | 0.00 | 0.00 | 52 | 1013.4 |
| 20260510143821 | 18 | 184 | 0.0 | 0.0 | 0.00 | 0.00 | 0.00 | 56 | 1013.4 |
| 20260510143311 | 17 | 184 | 0.0 | 0.0 | 0.00 | 0.00 | 0.00 | 59 | 1013.4 |
| 20260510142843 | 16 | 184 | 0.0 | 0.0 | 0.00 | 0.00 | 0.00 | 61 | 1013.5 |
| 20260510142334 | 15 | 184 | 0.0 | 0.0 | 0.00 | 0.00 | 0.00 | 61 | 1013.5 |
| 20260510141825 | 14 | 184 | 0.0 | 0.0 | 0.00 | 0.00 | 0.00 | 64 | 1013.5 |
| 20260510141316 | 13 | 184 | 0.0 | 0.0 | 0.00 | 0.00 | 0.00 | 67 | 1013.5 |
| 20260510140828 | 13 | 184 | 0.0 | 0.0 | 0.00 | 0.00 | 0.00 | 69 | 1013.5 |
| 20260510140338 | 13 | 184 | 0.0 | 0.0 | 0.00 | 0.00 | 0.00 | 70 | 1013.5 |
| 20260510135828 | 12 | 184 | 0.0 | 0.0 | 0.00 | 0.00 | 0.00 | 72 | 1013.7 |
| 20260510135323 | 12 | 184 | 0.0 | 0.0 | 0.00 | 0.00 | 0.00 | 73 | 1013.5 |
| 20260510134836 | 12 | 184 | 0.0 | 0.0 | 0.00 | 0.00 | 0.00 | 74 | 1013.5 |
| 20260510134324 | 11 | 184 | 0.0 | 0.0 | 0.00 | 0.00 | 0.00 | 75 | 1013.4 |
| 20260510133816 | 11 | 184 | 0.0 | 0.0 | 0.00 | 0.00 | 0.00 | 74 | 1013.4 |
| 20260510133327 | 11 | 184 | 0.0 | 0.0 | 0.00 | 0.00 | 0.00 | 74 | 1013.2 |
| 20260510132819 | 11 | 184 | 0.0 | 0.0 | 0.00 | 0.00 | 0.00 | 73 | 1013.2 |
| 20260510132311 | 11 | 184 | 0.0 | 0.0 | 0.00 | 0.00 | 0.00 | 73 | 1013.1 |
| 20260510131822 | 11 | 184 | 0.0 | 0.0 | 0.00 | 0.00 | 0.00 | 73 | 1013.1 |
| 20260510131314 | 11 | 184 | 0.0 | 0.0 | 0.00 | 0.00 | 0.00 | 73 | 1012.9 |
| 20260510130825 | 11 | 184 | 0.0 | 0.0 | 0.00 | 0.00 | 0.00 | 74 | 1012.8 |
| 20260510130321 | 11 | 184 | 0.0 | 0.0 | 0.00 | 0.00 | 0.00 | 74 | 1012.7 |
| 20260510125831 | 11 | 184 | 0.0 | 0.0 | 0.00 | 0.00 | 0.00 | 74 | 1012.7 |
| 20260510125321 | 11 | 184 | 0.0 | 0.0 | 0.00 | 0.00 | 0.00 | 74 | 1012.7 |
| 20260510124812 | 11 | 184 | 0.0 | 0.0 | 0.00 | 0.00 | 0.00 | 74 | 1012.7 |
| 20260510124323 | 11 | 184 | 0.0 | 0.0 | 0.00 | 0.00 | 0.00 | 72 | 1012.7 |
| 20260510123814 | 11 | 184 | 0.0 | 0.0 | 0.00 | 0.00 | 0.00 | 72 | 1012.7 |
| 20260510123324 | 11 | 184 | 0.0 | 0.0 | 0.00 | 0.00 | 0.00 | 72 | 1012.7 |
| 20260510122836 | 11 | 184 | 0.0 | 0.0 | 0.00 | 0.00 | 0.00 | 72 | 1012.6 |
| 20260510122325 | 11 | 184 | 0.0 | 0.0 | 0.00 | 0.00 | 0.00 | 72 | 1012.7 |
| 20260510121817 | 11 | 184 | 0.0 | 0.0 | 0.00 | 0.00 | 0.00 | 71 | 1012.7 |
| 20260510121311 | 11 | 184 | 0.0 | 0.0 | 0.00 | 0.00 | 0.00 | 72 | 1012.8 |
| 20260510120823 | 11 | 184 | 0.0 | 0.0 | 0.00 | 0.00 | 0.00 | 72 | 1012.7 |
| 20260510120335 | 12 | 184 | 0.0 | 0.0 | 0.00 | 0.00 | 0.00 | 72 | 1012.7 |
| 20260510115825 | 11 | 184 | 0.0 | 0.0 | 0.00 | 0.00 | 0.00 | 74 | 1012.7 |
| 20260510115317 | 11 | 184 | 0.0 | 0.0 | 0.00 | 0.00 | 0.00 | 75 | 1012.7 |
| 20260510114828 | 11 | 184 | 0.0 | 0.0 | 0.00 | 0.00 | 0.00 | 73 | 1012.7 |
| 20260510114341 | 11 | 184 | 0.0 | 0.0 | 0.00 | 0.00 | 0.00 | 73 | 1012.7 |
| 20260510113851 | 11 | 184 | 0.0 | 0.0 | 0.00 | 0.00 | 0.00 | 73 | 1012.7 |
| 20260510113342 | 11 | 184 | 0.0 | 0.0 | 0.00 | 0.00 | 0.00 | 72 | 1012.8 |
| 20260510112812 | 12 | 184 | 0.0 | 0.0 | 0.00 | 0.00 | 0.00 | 71 | 1012.8 |
| 20260510112324 | 12 | 184 | 0.0 | 0.0 | 0.00 | 0.00 | 0.00 | 71 | 1012.8 |
| 20260510111818 | 12 | 184 | 0.0 | 0.0 | 0.00 | 0.00 | 0.00 | 71 | 1012.7 |
| 20260510111350 | 12 | 184 | 0.0 | 0.0 | 0.00 | 0.00 | 0.00 | 71 | 1012.8 |
| 20260510110820 | 12 | 184 | 0.0 | 0.0 | 0.00 | 0.00 | 0.00 | 72 | 1012.7 |
| 20260510110311 | 12 | 184 | 0.0 | 0.0 | 0.00 | 0.00 | 0.00 | 70 | 1012.8 |
| 20260510105823 | 12 | 184 | 0.0 | 0.0 | 0.00 | 0.00 | 0.00 | 69 | 1013.0 |
| 20260510105313 | 12 | 184 | 0.0 | 0.0 | 0.00 | 0.00 | 0.00 | 69 | 1012.9 |
| 20260510104824 | 12 | 184 | 0.0 | 0.0 | 0.00 | 0.00 | 0.00 | 69 | 1012.9 |
| 20260510104316 | 12 | 184 | 0.0 | 0.0 | 0.00 | 0.00 | 0.00 | 69 | 1012.8 |
| 20260510103826 | 12 | 184 | 0.0 | 0.0 | 0.00 | 0.00 | 0.00 | 69 | 1012.9 |
| 20260510103318 | 13 | 184 | 0.0 | 0.0 | 0.00 | 0.00 | 0.00 | 68 | 1012.8 |
| 20260510102833 | 13 | 184 | 0.0 | 0.0 | 0.00 | 0.00 | 0.00 | 68 | 1012.9 |
| 20260510102322 | 13 | 184 | 0.0 | 0.0 | 0.00 | 0.00 | 0.00 | 68 | 1012.8 |
| 20260510101813 | 13 | 184 | 0.0 | 0.0 | 0.00 | 0.00 | 0.00 | 67 | 1012.9 |
| 20260510101325 | 13 | 184 | 0.0 | 0.0 | 0.00 | 0.00 | 0.00 | 66 | 1012.9 |
| 20260510100816 | 13 | 184 | 0.0 | 0.0 | 0.00 | 0.00 | 0.00 | 66 | 1012.8 |
| 20260510100328 | 13 | 184 | 0.0 | 0.0 | 0.00 | 0.00 | 0.00 | 66 | 1012.9 |
| 20260510095818 | 13 | 184 | 0.0 | 0.0 | 0.00 | 0.00 | 0.00 | 66 | 1012.9 |
| 20260510095351 | 13 | 184 | 0.0 | 0.0 | 0.00 | 0.00 | 0.00 | 66 | 1013.0 |
| 20260510094820 | 13 | 184 | 0.0 | 0.0 | 0.00 | 0.00 | 0.00 | 66 | 1012.9 |
| 20260510094332 | 13 | 184 | 0.0 | 0.0 | 0.00 | 0.00 | 0.00 | 66 | 1012.9 |
| 20260510093827 | 13 | 184 | 0.0 | 0.0 | 0.00 | 0.00 | 0.00 | 66 | 1013.1 |
| 20260510093318 | 13 | 184 | 0.0 | 0.0 | 0.00 | 0.00 | 0.00 | 66 | 1013.0 |
| 20260510092830 | 13 | 184 | 0.0 | 0.0 | 0.00 | 0.00 | 0.00 | 66 | 1013.0 |
| 20260510092320 | 13 | 184 | 0.0 | 0.0 | 0.00 | 0.00 | 0.00 | 65 | 1013.1 |
| 20260510091811 | 13 | 184 | 0.0 | 0.0 | 0.00 | 0.00 | 0.00 | 65 | 1013.0 |
| 20260510091323 | 13 | 184 | 0.0 | 0.0 | 0.00 | 0.00 | 0.00 | 65 | 1013.1 |
| 20260510090815 | 13 | 184 | 0.0 | 0.0 | 0.00 | 0.00 | 0.00 | 64 | 1013.1 |
| 20260510090326 | 14 | 184 | 0.0 | 0.0 | 0.00 | 0.00 | 0.00 | 63 | 1013.2 |
| 20260510085822 | 14 | 184 | 0.0 | 0.0 | 0.00 | 0.00 | 0.00 | 63 | 1013.1 |
| 20260510085312 | 14 | 184 | 0.0 | 0.0 | 0.00 | 0.00 | 0.00 | 63 | 1013.2 |
| 20260510084824 | 14 | 184 | 0.0 | 0.0 | 0.00 | 0.00 | 0.00 | 62 | 1013.2 |
| 20260510084315 | 15 | 184 | 0.0 | 0.0 | 0.00 | 0.00 | 0.00 | 62 | 1013.2 |
| 20260510083826 | 15 | 184 | 0.0 | 0.0 | 0.00 | 0.00 | 0.00 | 62 | 1013.2 |
| 20260510083318 | 15 | 184 | 0.0 | 0.0 | 0.00 | 0.00 | 0.00 | 62 | 1013.2 |
| 20260510082829 | 15 | 184 | 0.0 | 0.0 | 0.00 | 0.00 | 0.00 | 62 | 1013.3 |
| 20260510082340 | 15 | 184 | 0.0 | 0.0 | 0.00 | 0.00 | 0.00 | 62 | 1013.3 |
| 20260510081830 | 15 | 184 | 0.0 | 0.0 | 0.00 | 0.00 | 0.00 | 61 | 1013.3 |
| 20260510081325 | 15 | 184 | 0.0 | 0.0 | 0.00 | 0.00 | 0.00 | 61 | 1013.4 |
| 20260510080815 | 15 | 184 | 0.0 | 0.0 | 0.00 | 0.00 | 0.00 | 60 | 1013.3 |
| 20260510080327 | 15 | 184 | 0.0 | 0.0 | 0.00 | 0.00 | 0.00 | 60 | 1013.4 |
| 20260510075818 | 15 | 184 | 0.0 | 0.0 | 0.00 | 0.00 | 0.00 | 61 | 1013.4 |
| 20260510075328 | 15 | 184 | 0.0 | 0.0 | 0.00 | 0.00 | 0.00 | 61 | 1013.5 |
| 20260510074821 | 15 | 184 | 0.0 | 0.0 | 0.00 | 0.00 | 0.00 | 61 | 1013.5 |
| 20260510074312 | 15 | 184 | 0.0 | 0.0 | 0.00 | 0.00 | 0.00 | 60 | 1013.5 |
| 20260510073823 | 15 | 184 | 0.0 | 0.0 | 0.00 | 0.00 | 0.00 | 60 | 1013.5 |
| 20260510073334 | 15 | 184 | 0.0 | 0.0 | 0.00 | 0.00 | 0.00 | 61 | 1013.7 |
| 20260510072844 | 15 | 184 | 0.0 | 0.0 | 0.00 | 0.00 | 0.00 | 61 | 1013.7 |
| 20260510072317 | 15 | 184 | 0.0 | 0.0 | 0.00 | 0.00 | 0.00 | 63 | 1013.8 |
| 20260510071828 | 15 | 184 | 0.0 | 0.0 | 0.00 | 0.00 | 0.00 | 62 | 1013.8 |
| 20260510071338 | 15 | 184 | 0.0 | 0.0 | 0.00 | 0.00 | 0.00 | 61 | 1013.8 |
| 20260510070829 | 15 | 184 | 0.0 | 0.0 | 0.00 | 0.00 | 0.00 | 61 | 1013.8 |
| 20260510070320 | 15 | 184 | 0.0 | 0.0 | 0.00 | 0.00 | 0.00 | 61 | 1013.8 |
| 20260510065851 | 16 | 184 | 0.0 | 0.0 | 0.00 | 0.00 | 0.00 | 61 | 1013.7 |
| 20260510065321 | 16 | 184 | 0.0 | 0.0 | 0.00 | 0.00 | 0.00 | 60 | 1013.8 |
| 20260510064812 | 16 | 184 | 0.0 | 0.0 | 0.00 | 0.00 | 0.00 | 60 | 1013.8 |
| 20260510064344 | 16 | 184 | 0.0 | 0.0 | 0.00 | 0.00 | 0.00 | 60 | 1013.8 |
| 20260510063815 | 16 | 184 | 0.0 | 0.0 | 0.00 | 0.00 | 0.00 | 59 | 1013.8 |
| 20260510063327 | 16 | 184 | 0.0 | 0.0 | 0.00 | 0.00 | 0.00 | 59 | 1013.8 |
| 20260510062821 | 16 | 184 | 0.0 | 0.0 | 0.00 | 0.00 | 0.00 | 58 | 1013.8 |
| 20260510062313 | 16 | 184 | 0.0 | 0.0 | 0.00 | 0.00 | 0.00 | 58 | 1013.8 |
| 20260510061823 | 16 | 184 | 0.0 | 0.0 | 0.00 | 0.00 | 0.00 | 58 | 1013.9 |
| 20260510061314 | 16 | 184 | 0.0 | 0.0 | 0.00 | 0.00 | 0.00 | 57 | 1013.8 |
| 20260510060826 | 17 | 184 | 0.0 | 0.0 | 0.00 | 0.00 | 0.00 | 57 | 1013.9 |
| 20260510060318 | 17 | 210 | 0.0 | 0.0 | 0.00 | 0.00 | 0.00 | 57 | 1013.8 |
| 20260510055848 | 17 | 210 | 0.0 | 0.0 | 0.00 | 0.00 | 0.00 | 56 | 1013.8 |
| 20260510055318 | 17 | 210 | 0.0 | 0.0 | 0.00 | 0.00 | 0.00 | 55 | 1013.8 |
| 20260510054829 | 17 | 210 | 0.0 | 0.0 | 0.00 | 0.00 | 0.00 | 55 | 1013.8 |
| 20260510054324 | 17 | 210 | 0.0 | 0.0 | 0.00 | 0.00 | 0.00 | 54 | 1013.8 |
| 20260510053815 | 17 | 210 | 0.0 | 0.0 | 0.00 | 0.00 | 0.00 | 54 | 1013.8 |
| 20260510053345 | 18 | 210 | 0.0 | 0.0 | 0.00 | 0.00 | 0.00 | 54 | 1013.8 |
| 20260510052813 | 18 | 210 | 0.0 | 0.0 | 0.00 | 0.00 | 0.00 | 53 | 1013.8 |
| 20260510052324 | 18 | 210 | 0.0 | 0.0 | 0.00 | 0.00 | 0.00 | 51 | 1013.8 |
| 20260510051814 | 18 | 210 | 0.0 | 0.0 | 0.00 | 0.00 | 0.00 | 49 | 1013.7 |
| 20260510051326 | 18 | 210 | 0.0 | 0.0 | 0.00 | 0.00 | 0.00 | 47 | 1013.8 |
| 20260510050818 | 19 | 210 | 0.0 | 0.0 | 0.00 | 0.00 | 0.00 | 47 | 1013.7 |
| 20260510050330 | 19 | 210 | 0.0 | 0.0 | 0.00 | 0.00 | 0.00 | 46 | 1013.8 |
| 20260510045820 | 19 | 210 | 0.0 | 0.0 | 0.00 | 0.00 | 0.00 | 45 | 1013.7 |
| 20260510045315 | 19 | 210 | 0.0 | 0.0 | 0.00 | 0.00 | 0.00 | 45 | 1013.7 |
| 20260510044824 | 19 | 210 | 0.0 | 0.0 | 0.00 | 0.00 | 0.00 | 45 | 1013.4 |
| 20260510044335 | 20 | 210 | 0.0 | 0.0 | 0.00 | 0.00 | 0.00 | 44 | 1013.4 |
| 20260510043825 | 20 | 210 | 0.0 | 0.0 | 0.00 | 0.00 | 0.00 | 44 | 1013.3 |
| 20260510043316 | 20 | 210 | 0.0 | 0.0 | 0.00 | 0.00 | 0.00 | 43 | 1013.2 |
| 20260510042826 | 20 | 210 | 0.0 | 0.0 | 0.00 | 0.00 | 0.00 | 42 | 1013.3 |
| 20260510042317 | 20 | 210 | 0.0 | 0.0 | 0.00 | 0.00 | 0.00 | 41 | 1013.3 |
| 20260510041829 | 21 | 210 | 0.0 | 0.0 | 0.00 | 0.00 | 0.00 | 41 | 1013.2 |
| 20260510041340 | 21 | 210 | 0.0 | 0.0 | 0.00 | 0.00 | 0.00 | 41 | 1013.2 |
| 20260510040814 | 21 | 210 | 0.0 | 0.0 | 0.00 | 0.00 | 0.00 | 42 | 1013.2 |
| 20260510040325 | 21 | 210 | 0.0 | 0.0 | 0.00 | 0.00 | 0.00 | 40 | 1013.1 |
| 20260510035836 | 21 | 210 | 0.0 | 0.0 | 0.00 | 0.00 | 0.00 | 40 | 1013.1 |
| 20260510035328 | 21 | 210 | 0.0 | 0.0 | 0.00 | 0.00 | 0.00 | 39 | 1013.0 |
| 20260510034820 | 22 | 210 | 0.0 | 0.0 | 0.00 | 0.00 | 0.00 | 39 | 1013.0 |
| 20260510034332 | 22 | 210 | 0.0 | 0.0 | 0.00 | 0.00 | 0.00 | 38 | 1012.9 |
| 20260510033821 | 22 | 210 | 0.0 | 1.6 | 0.00 | 0.00 | 0.00 | 38 | 1012.9 |
| 20260510033333 | 22 | 210 | 0.0 | 1.6 | 0.00 | 0.00 | 0.00 | 37 | 1012.9 |
| 20260510032823 | 22 | 208 | 0.0 | 0.0 | 0.00 | 0.00 | 0.00 | 37 | 1012.9 |
| 20260510032335 | 22 | 208 | 0.0 | 0.0 | 0.00 | 0.00 | 0.00 | 37 | 1012.8 |
| 20260510031845 | 22 | 208 | 0.0 | 0.0 | 0.00 | 0.00 | 0.00 | 36 | 1012.8 |
| 20260510031316 | 22 | 208 | 0.0 | 0.0 | 0.00 | 0.00 | 0.00 | 36 | 1012.7 |
| 20260510030830 | 22 | 208 | 0.0 | 0.0 | 0.00 | 0.00 | 0.00 | 36 | 1012.7 |
| 20260510030322 | 23 | 208 | 0.0 | 0.0 | 0.00 | 0.00 | 0.00 | 35 | 1012.6 |
| 20260510025814 | 23 | 208 | 0.0 | 0.0 | 0.00 | 0.00 | 0.00 | 34 | 1012.6 |
| 20260510025325 | 23 | 208 | 0.0 | 0.0 | 0.00 | 0.00 | 0.00 | 34 | 1012.6 |
| 20260510024836 | 23 | 208 | 0.0 | 0.0 | 0.00 | 0.00 | 0.00 | 34 | 1012.6 |
| 20260510024326 | 23 | 208 | 0.0 | 1.6 | 0.00 | 0.00 | 0.00 | 33 | 1012.6 |
| 20260510023819 | 24 | 208 | 0.0 | 3.2 | 0.00 | 0.00 | 0.00 | 33 | 1012.5 |
| 20260510023329 | 24 | 208 | 0.0 | 6.4 | 0.00 | 0.00 | 0.00 | 33 | 1012.5 |
| 20260510022820 | 25 | 238 | 0.0 | 4.8 | 0.00 | 0.00 | 0.00 | 33 | 1012.5 |
| 20260510022315 | 25 | 276 | 0.0 | 1.6 | 0.00 | 0.00 | 0.00 | 32 | 1012.4 |
| 20260510021827 | 25 | 276 | 0.0 | 3.2 | 0.00 | 0.00 | 0.00 | 32 | 1012.4 |
| 20260510021337 | 25 | 263 | 0.0 | 8.0 | 0.00 | 0.00 | 0.00 | 31 | 1012.3 |
| 20260510020827 | 26 | 216 | 3.2 | 8.0 | 0.00 | 0.00 | 0.00 | 31 | 1012.3 |
| 20260510020319 | 26 | 277 | 3.2 | 9.7 | 0.00 | 0.00 | 0.00 | 31 | 1012.2 |
| 20260510015830 | 26 | 220 | 4.8 | 14.5 | 0.00 | 0.00 | 0.00 | 31 | 1012.1 |
| 20260510015320 | 26 | 231 | 8.0 | 14.5 | 0.00 | 0.00 | 0.00 | 30 | 1012.1 |
| 20260510014812 | 27 | 251 | 6.4 | 12.9 | 0.00 | 0.00 | 0.00 | 29 | 1012.0 |
| 20260510014323 | 27 | 219 | 4.8 | 9.7 | 0.00 | 0.00 | 0.00 | 30 | 1011.9 |
| 20260510013814 | 27 | 233 | 3.2 | 17.7 | 0.00 | 0.00 | 0.00 | 29 | 1011.8 |
| 20260510013324 | 27 | 216 | 6.4 | 17.7 | 0.00 | 0.00 | 0.00 | 29 | 1011.8 |
| 20260510012820 | 28 | 204 | 9.7 | 14.5 | 0.00 | 0.00 | 0.00 | 29 | 1011.8 |
| 20260510012330 | 28 | 220 | 6.4 | 17.7 | 0.00 | 0.00 | 0.00 | 29 | 1011.7 |
| 20260510011822 | 28 | 222 | 8.0 | 17.7 | 0.00 | 0.00 | 0.00 | 29 | 1011.6 |
| 20260510011313 | 28 | 205 | 6.4 | 12.9 | 0.00 | 0.00 | 0.00 | 28 | 1011.6 |
| 20260510010845 | 29 | 245 | 3.2 | 14.5 | 0.00 | 0.00 | 0.00 | 29 | 1011.6 |
| 20260510010314 | 28 | 195 | 6.4 | 14.5 | 0.00 | 0.00 | 0.00 | 29 | 1011.6 |
| 20260510005826 | 29 | 242 | 6.4 | 16.1 | 0.00 | 0.00 | 0.00 | 30 | 1011.5 |
| 20260510005317 | 29 | 224 | 9.7 | 17.7 | 0.00 | 0.00 | 0.00 | 29 | 1011.4 |
| 20260510004829 | 29 | 260 | 9.7 | 17.7 | 0.00 | 0.00 | 0.00 | 28 | 1011.4 |
| 20260510004324 | 30 | 220 | 6.4 | 19.3 | 0.00 | 0.00 | 0.00 | 29 | 1011.3 |
| 20260510003816 | 30 | 241 | 6.4 | 19.3 | 0.00 | 0.00 | 0.00 | 28 | 1011.3 |
| 20260510003327 | 30 | 196 | 6.4 | 16.1 | 0.00 | 0.00 | 0.00 | 28 | 1011.3 |
| 20260510002819 | 30 | 200 | 6.4 | 14.5 | 0.00 | 0.00 | 0.00 | 27 | 1011.3 |
| 20260510002351 | 30 | 303 | 4.8 | 12.9 | 0.00 | 0.00 | 0.00 | 27 | 1011.3 |
| 20260510001821 | 30 | 300 | 6.4 | 17.7 | 0.00 | 0.00 | 0.00 | 27 | 1011.3 |
| 20260510001312 | 30 | 275 | 4.8 | 17.7 | 0.00 | 0.00 | 0.00 | 27 | 1011.3 |
| 20260510000823 | 30 | 197 | 8.0 | 20.9 | 0.00 | 0.00 | 0.00 | 27 | 1011.3 |
| 20260510000315 | 31 | 209 | 8.0 | 20.9 | 0.00 | 0.00 | 0.00 | 27 | 1011.2 |
| 20260509235826 | 31 | 172 | 9.7 | 19.3 | 0.00 | 0.00 | 0.00 | 26 | 1011.2 |
| 20260509235321 | 31 | 214 | 9.7 | 19.3 | 0.00 | 0.00 | 0.00 | 26 | 1011.1 |
| 20260509234813 | 31 | 224 | 9.7 | 19.3 | 0.00 | 0.00 | 0.00 | 26 | 1011.1 |
| 20260509234324 | 31 | 211 | 9.7 | 19.3 | 0.00 | 0.00 | 0.00 | 26 | 1011.1 |
| 20260509233814 | 31 | 218 | 12.9 | 19.3 | 0.00 | 0.00 | 0.00 | 26 | 1011.1 |